Location: Chippewa Lake
(41.0698°N, 81.9010°W)
Time: 00:57:19
(UTC+00:00)

Cosmos 2369 Rocket - Pass Details

Date: 09 May 2021
Orbit: 827 x 854 km, 71.0° (Epoch: 24 June)

Event Time Altitude Azimuth Distance (km) Brightness Sun altitude
Exits shadow 05:50:35 52° 322° (NW) 1,031 2.7 -31.2°
Drops below altitude 10° 05:55:31 10° 15° (NNE) 2,459 5.5 -31.0°
Sets 05:58:03 0° 20° (NNE) 3,402 6.5 -31.0°
